Location: ??
(35.5653°N, 139.6194°E)
Time: 08:41:54
(UTC+00:00)

OAO 3 Rocket - Pass Details

Date: 20 November 2019
Orbit: 630 x 682 km, 35.0° (Epoch: 08 December)

Event Time Altitude Azimuth Distance (km) Brightness Sun altitude
Exits shadow 18:52:38 43° 111° (ESE) 921 4.2 -30.2°
Drops below altitude 10° 18:55:55 10° 103° (ESE) 2,062 6.6 -29.6°
Sets 18:58:16 0° 102° (ESE) 2,963 7.8 -29.1°
